Theta_e
317 316 315 315 314 314 314 313 313 313 313 312 312 313 314 315 315 314 311 310 305 303 307 311 315 312 311 307 305 306 306 306 304 302 300 302 301 302 300 301 301 300 299 300 301 298 294 312 311 306 313 319 321 324
317 316 315 315 314 313 313 313 312 312 312 312 312 312 313 314 314 313 308 309 309 304 305 308 310 312 312 315 312 307 308 308 308 304 303 304 301 302 302 298 305 300 304 304 303 304 310 313 314 317 317 320 319 323
315 315 315 315 314 312 312 313 312 312 312 312 312 312 313 314 314 313 310 311 308 305 305 307 305 312 317 315 319 309 309 311 308 310 307 307 305 305 301 302 303 306 306 305 305 307 309 313 317 318 318 322 324 327
315 315 314 314 313 312 312 312 312 312 312 311 312 312 313 313 314 314 309 309 306 302 300 307 317 316 321 319 319 318 313 310 309 309 307 306 304 307 305 305 305 307 307 306 306 310 311 314 316 318 323 325 327 328
312 312 313 312 312 312 311 311 311 312 311 311 311 312 313 313 313 313 311 311 311 303 300 303 309 314 317 318 315 317 314 312 309 306 305 305 304 304 304 305 304 309 309 305 303 314 314 315 318 322 325 324 327 325
311 312 311 311 311 311 311 310 311 311 311 311 312 313 313 313 313 309 304 308 311 309 300 301 314 314 314 314 314 311 313 310 309 309 306 304 305 307 302 302 309 312 314 315 312 316 314 317 318 325 324 325 327 326
311 311 311 311 310 310 310 310 311 311 311 311 312 313 313 312 311 305 304 305 308 309 303 304 307 313 312 310 310 310 310 309 311 307 306 308 307 307 305 304 310 310 314 313 314 315 312 315 316 324 326 326 325 327
309 309 310 310 309 309 310 310 311 311 311 311 313 313 312 312 311 307 312 309 309 305 305 304 304 307 312 308 307 310 308 309 307 306 306 306 305 305 303 309 312 311 312 312 314 317 317 318 320 324 327 326 322 322
309 309 309 309 309 309 309 310 310 310 311 312 312 312 310 308 304 306 311 313 311 305 302 303 301 302 312 309 310 310 310 305 306 305 306 307 303 295 309 313 311 311 314 315 315 315 314 316 318 323 324 324 320 321
309 309 308 308 307 307 308 310 310 310 312 312 310 305 300 304 309 313 310 304 303 304 306 303 308 303 310 310 308 309 308 306 303 306 306 304 305 311 315 314 317 315 315 316 312 310 312 314 317 321 321 323 323 322
308 308 308 308 308 308 308 310 309 310 311 308 303 303 310 310 312 308 303 300 301 301 305 306 305 303 312 309 308 310 307 305 301 305 303 303 302 309 316 314 315 316 316 317 318 318 317 317 317 319 320 321 322 324
307 307 307 308 308 308 309 309 309 310 308 306 305 307 308 310 306 302 301 301 300 297 302 302 305 306 309 314 311 311 306 306 300 307 302 301 308 316 314 314 314 315 315 316 318 317 317 317 317 317 317 317 317 320
307 307 307 307 308 308 309 309 308 309 308 307 304 303 306 303 292 296 294 298 297 302 303 302 303 307 311 313 310 310 303 302 307 302 301 305 313 313 313 313 314 314 315 317 316 318 317 317 318 317 316 318 319 319
306 306 306 307 307 308 309 309 308 309 306 302 302 291 298 297 298 300 300 300 304 305 308 305 302 306 308 307 308 302 306 307 298 296 299 308 316 318 315 314 313 312 313 315 315 315 316 317 316 317 318 319 319 320
305 305 305 306 307 307 308 309 309 309 305 300 303 292 298 303 303 303 304 304 307 310 310 305 305 306 306 304 305 303 300 297 299 298 305 311 315 314 314 314 314 313 313 314 316 314 315 316 316 316 318 319 321 321
305 305 304 306 307 308 308 308 309 308 305 303 302 299 302 300 301 303 304 304 309 311 311 309 305 302 301 304 300 299 297 296 300 307 310 313 313 314 314 314 315 315 315 315 315 316 316 316 316 317 317 318 319 319
304 303 308 309 308 309 308 307 306 302 300 299 299 304 302 302 302 305 306 308 311 309 305 306 299 299 306 301 299 303 301 306 311 312 314 315 316 316 316 314 314 313 313 315 315 316 316 317 317 315 314 317 318 319
303 307 309 309 308 307 306 306 303 301 296 299 297 301 302 304 302 303 305 309 310 308 308 303 307 300 299 296 300 308 310 313 314 314 315 315 317 319 316 314 313 313 314 314 315 315 314 314 314 314 317 317 317 317
306 306 308 309 308 305 300 301 303 297 298 300 301 301 300 303 305 306 307 311 313 313 311 306 301 298 300 307 307 310 313 312 312 314 316 318 317 316 315 314 313 312 312 313 313 312 313 315 315 315 315 315 314 314
306 307 307 310 309 304 300 301 305 299 297 299 301 301 302 303 305 305 305 306 308 308 305 302 302 305 309 310 313 311 313 315 315 313 316 319 318 314 313 313 311 313 311 312 312 307 312 312 313 314 313 313 313 312
305 308 310 309 306 304 301 301 300 300 301 298 303 302 303 305 304 302 302 306 303 303 302 308 307 310 313 315 317 313 314 315 317 316 316 315 317 317 314 313 313 312 312 311 310 310 308 312 314 313 312 312 314 314
307 309 305 306 302 303 301 304 300 304 302 303 304 305 303 303 302 301 304 303 302 304 306 308 309 311 311 312 313 316 317 317 315 316 308 312 317 317 314 313 313 312 314 315 314 314 313 314 314 314 313 313 310 311
308 307 304 302 298 296 296 304 300 302 299 301 305 302 302 303 305 306 301 304 305 309 310 311 312 313 310 312 315 316 316 316 311 312 316 319 319 321 319 318 320 318 316 315 316 316 315 307 308 313 313 312 312 311
306 303 300 298 297 293 301 298 301 300 301 300 300 299 303 306 306 304 301 306 308 311 310 311 310 309 311 311 310 311 312 313 314 315 318 316 317 319 320 321 319 318 319 315 314 313 313 313 307 312 312 311 311 310
294 294 296 289 299 297 295 297 299 300 299 301 300 301 303 307 302 301 302 304 311 311 311 311 313 312 311 313 314 314 316 315 313 312 316 316 316 315 316 317 316 316 315 313 311 311 312 311 310 310 310 310 309 309
289 296 292 296 297 296 297 296 298 299 299 299 301 304 307 304 300 299 305 310 311 312 313 313 312 313 314 314 313 315 315 317 316 314 317 318 318 317 316 313 313 313 315 316 314 312 310 310 309 309 309 308 300 308
290 294 298 303 301 300 298 301 302 300 299 299 302 302 303 297 298 305 312 313 313 316 316 316 316 314 314 315 315 317 319 320 319 319 320 319 319 319 317 315 313 316 314 315 314 313 311 310 310 309 309 311 311 310
296 298 295 299 300 300 297 299 298 299 301 305 304 300 299 299 301 309 311 314 315 316 318 318 317 316 315 316 317 318 317 317 315 315 315 315 316 317 317 317 317 301 315 316 314 313 312 311 311 311 311 310 309 310
296 301 300 297 299 300 300 299 300 304 306 306 302 302 304 309 310 310 313 315 318 318 314 312 315 317 317 315 317 317 316 316 314 312 310 309 307 309 313 313 312 314 314 313 300 308 313 313 313 311 311 311 311 311
297 301 298 297 297 297 302 304 306 309 310 311 309 308 308 311 315 316 315 315 316 314 315 316 316 317 314 311 309 312 314 313 314 311 308 309 311 312 312 313 313 314 314 313 311 306 297 306 303 309 308 308 309 309
301 299 297 298 297 301 307 308 308 310 310 307 309 307 306 309 313 314 316 317 316 315 316 313 313 316 314 313 313 312 311 314 314 314 315 314 314 314 314 315 314 315 314 313 312 311 310 308 309 309 308 308 308 306
298 298 297 296 298 303 308 305 305 305 307 307 307 310 309 307 307 311 314 315 312 310 306 308 310 313 316 317 316 316 301 315 314 315 315 314 314 315 315 314 315 315 314 314 312 311 311 310 309 309 308 308 308 308
298 298 299 298 298 299 302 303 303 304 306 306 308 309 309 307 305 312 316 313 310 308 307 306 307 314 314 310 309 309 306 315 306 299 300 301 302 307 314 315 312 311 311 312 313 312 311 311 311 311 311 311 310 310
Wind_Speed
13 11 10 9 8 6 4 5 6 6 7 7 7 7 8 6 6 2 2 3 3 3 7 5 4 2 2 0 2 3 5 2 3 3 3 4 3 4 3 2 3 4 3 3 1 4 8 2 4 5 5 5 2 4
13 11 11 9 7 4 4 6 5 6 7 7 8 7 7 5 5 0 1 0 1 5 5 3 10 14 12 11 3 2 3 4 4 5 2 4 3 4 4 3 2 4 4 0 5 2 1 4 8 4 1 4 3 6
11 10 8 7 7 5 5 6 5 7 7 7 8 8 7 7 5 3 2 1 2 3 6 4 10 9 10 17 12 4 2 2 4 2 4 3 3 4 5 6 4 6 4 3 3 2 8 6 6 7 3 6 8 9
7 6 4 7 6 4 5 6 6 7 7 7 8 10 8 8 6 5 2 2 2 3 4 4 3 7 3 8 15 18 1 4 5 1 2 3 3 4 3 1 4 2 9 5 5 8 5 7 6 3 6 10 13 13
1 3 5 4 4 4 6 6 7 6 6 6 8 10 9 8 6 5 5 5 5 3 4 6 12 5 5 9 12 13 10 4 2 3 2 3 3 4 2 1 4 7 6 6 4 6 2 6 7 8 9 11 14 14
4 6 4 4 5 5 6 6 6 7 7 8 10 10 9 7 2 2 3 2 5 4 4 4 4 3 2 5 9 10 8 3 2 3 2 2 1 4 4 4 7 12 10 5 1 6 3 4 4 5 10 6 11 11
5 4 4 5 5 5 6 6 7 7 8 10 10 9 8 5 3 4 2 3 4 4 3 5 4 1 1 4 3 4 3 2 1 3 3 3 3 4 2 4 4 9 11 9 2 10 4 8 6 9 10 11 10 11
2 2 3 4 5 5 5 5 7 8 9 10 8 7 6 5 5 4 5 13 6 3 3 3 4 2 3 2 4 0 4 2 2 3 2 3 3 2 5 8 8 4 7 9 10 9 4 8 11 10 12 13 13 11
5 4 5 5 4 4 5 6 7 8 9 8 6 4 1 2 2 3 1 14 4 3 3 2 3 1 3 1 2 2 0 3 2 3 3 5 3 5 7 8 10 10 8 6 11 11 9 14 14 14 13 14 14 12
5 5 4 3 4 5 6 6 8 9 8 4 2 2 2 3 4 10 2 5 4 3 3 4 1 3 2 1 2 3 1 3 4 2 4 4 5 7 8 10 8 9 11 11 13 9 9 12 15 16 14 12 12 13
4 5 4 5 5 5 6 6 8 8 2 1 2 2 2 2 4 3 3 5 4 4 5 4 5 4 1 2 2 1 2 2 2 3 4 3 4 6 11 13 11 9 12 15 13 16 17 18 15 13 11 11 9 10
5 5 4 6 5 6 6 6 6 2 1 1 2 2 2 3 2 3 3 2 5 4 3 3 2 5 1 1 1 2 2 1 3 2 3 4 4 7 6 8 10 12 13 13 12 13 14 14 15 14 12 11 10 9
5 5 4 6 6 6 5 5 4 3 3 1 2 2 1 2 0 5 6 4 3 3 2 2 3 2 3 1 1 3 5 3 3 3 4 4 2 4 4 4 5 9 12 12 11 12 13 13 11 13 12 9 9 8
4 4 5 6 7 7 5 5 4 2 2 3 3 2 4 4 4 4 2 1 1 1 1 1 1 2 1 4 2 4 4 3 3 3 4 3 6 7 2 5 6 11 15 14 15 14 14 12 12 12 11 10 11 10
4 5 7 9 10 9 7 5 2 2 2 3 3 4 6 2 2 2 2 3 1 0 1 2 1 2 2 3 3 3 6 6 8 7 3 2 6 7 6 6 8 9 13 12 13 13 13 12 11 12 10 10 10 11
4 8 5 7 6 9 9 4 1 2 2 3 4 3 2 2 3 2 3 4 1 1 1 2 2 3 5 3 5 7 4 5 3 2 2 4 5 6 5 5 6 7 12 12 12 14 13 12 13 12 11 11 12 13
2 3 1 2 8 8 10 2 3 3 3 3 4 3 4 4 3 2 2 2 1 2 3 2 4 4 1 4 5 4 4 1 2 3 3 4 7 8 7 4 6 8 11 11 11 12 12 10 10 11 12 11 12 12
4 2 8 12 8 6 2 2 2 3 5 5 5 4 4 4 3 4 3 3 4 3 2 3 1 3 4 5 5 2 3 2 3 4 4 5 8 7 5 5 7 8 9 10 10 10 11 12 11 9 10 12 10 9
1 2 6 10 3 2 3 3 2 3 6 3 4 3 3 4 6 8 6 4 4 1 2 2 4 4 5 4 6 6 3 3 3 4 5 7 8 7 7 5 8 9 10 11 11 9 9 12 9 8 8 10 9 9
8 9 6 10 3 2 3 3 2 3 4 2 3 4 4 4 3 5 7 6 6 3 6 6 7 7 5 5 3 5 3 3 3 3 6 6 5 5 7 8 8 9 8 8 7 7 7 6 4 7 8 10 10 11
2 2 6 5 2 1 2 2 4 4 2 4 2 4 3 2 4 4 4 6 6 5 6 7 8 7 6 3 2 5 9 6 3 1 3 6 4 2 2 6 8 8 7 6 7 6 6 7 7 6 8 9 8 8
2 5 2 1 2 3 4 4 3 2 3 4 3 4 3 3 4 3 4 6 5 8 7 8 9 8 7 9 6 7 8 6 2 2 3 3 2 2 4 5 6 6 5 6 7 7 7 5 5 6 7 6 8 9
2 3 2 2 3 2 4 2 4 4 4 3 2 3 3 2 2 5 3 4 5 5 8 9 10 5 7 7 6 6 5 6 3 3 4 5 3 2 0 3 3 7 7 5 3 4 5 6 6 7 7 9 9 9
2 2 3 4 4 3 2 3 4 4 3 3 3 4 2 2 4 3 4 2 1 2 3 4 5 4 3 7 7 6 7 6 7 7 5 5 3 2 3 2 2 2 1 6 7 6 6 6 8 8 8 9 10 12
2 2 2 3 3 4 4 3 4 4 4 4 3 3 2 3 4 3 2 3 4 3 4 2 3 5 5 4 3 5 6 7 7 6 5 8 4 3 3 2 2 3 6 9 8 10 9 10 8 9 10 11 14 16
1 4 6 3 4 4 4 3 2 2 3 3 3 2 2 2 3 2 0 3 2 2 4 4 3 3 2 2 2 1 3 5 6 4 2 5 6 5 4 4 5 5 4 5 9 11 12 10 11 15 13 14 10 12
3 5 4 3 2 1 3 2 3 3 4 3 1 2 1 2 1 1 1 1 2 2 3 4 2 4 4 2 1 1 3 4 2 2 2 2 2 3 4 5 7 3 8 8 9 12 14 13 13 13 13 10 10 10
3 3 5 2 3 3 3 3 3 3 3 1 1 3 1 1 3 2 1 1 3 3 3 3 2 1 1 2 1 3 4 4 6 7 6 6 4 3 2 1 2 11 9 8 9 10 10 11 13 12 12 11 10 9
4 2 3 4 4 4 5 4 3 1 1 1 2 2 3 1 2 2 2 3 3 1 4 4 4 2 3 4 3 3 5 5 6 8 7 5 2 2 3 5 8 8 8 9 6 8 12 10 11 11 11 9 8 7
4 5 4 3 4 4 2 3 2 1 1 1 1 2 2 1 1 1 1 1 1 1 1 2 2 0 3 4 4 5 2 1 2 2 3 4 4 5 6 7 8 8 9 10 9 9 10 9 9 6 7 6 7 7
2 4 4 4 4 2 4 1 2 3 0 1 2 3 4 2 1 1 1 2 1 1 2 3 4 3 4 5 5 6 6 3 4 4 5 7 7 8 8 9 9 9 9 9 7 7 8 8 7 8 8 8 9 8
4 6 4 4 3 4 5 5 5 5 3 4 3 3 1 0 1 1 2 2 3 2 3 5 4 3 1 2 3 4 2 5 5 6 9 8 8 9 9 7 7 6 6 5 5 6 9 9 8 8 8 9 9 10
4 3 4 4 3 3 4 5 6 4 4 3 1 1 1 1 2 1 2 3 4 5 5 4 3 2 4 6 5 3 3 4 5 5 7 8 8 7 5 4 4 5 8 7 7 7 10 10 9 9 9 8 9 9
Wind_Direction
209 199 195 201 210 221 256 275 281 291 299 303 309 320 327 340 344 326 306 220 268 251 275 243 267 280 324 253 197 122 154 161 121 140 168 169 191 183 222 237 219 217 198 215 185 237 254 150 154 232 45 55 102 156
200 191 201 195 205 221 257 269 278 286 290 294 299 310 312 320 331 20 296 54 252 249 289 299 276 269 258 259 314 207 330 168 145 112 177 137 163 169 210 239 175 228 233 267 227 299 130 242 264 271 357 221 170 121
187 190 198 202 214 220 253 271 279 279 283 291 300 303 302 302 280 274 269 280 250 275 268 256 242 253 221 232 228 252 227 136 173 22 141 122 191 170 188 222 190 198 175 227 260 183 246 252 243 253 205 213 161 140
183 177 209 230 218 223 254 268 273 275 283 292 300 299 296 285 270 235 217 157 264 293 279 286 311 266 206 199 203 214 167 94 94 140 121 154 202 209 205 33 227 53 163 183 250 260 267 247 233 230 155 150 139 137
202 227 219 227 225 243 262 266 268 274 281 287 297 294 289 282 279 254 234 214 227 291 304 293 309 258 241 193 195 200 204 161 173 144 157 186 112 171 125 219 212 186 176 189 249 202 196 161 188 177 135 140 141 139
227 232 205 217 231 239 257 266 274 276 281 287 286 290 280 282 274 260 277 193 189 192 273 287 313 278 3 185 184 177 181 145 199 151 153 164 80 225 198 234 245 202 204 208 173 168 178 126 161 148 124 143 146 141
205 198 215 219 233 251 258 272 280 282 286 286 284 283 279 271 198 222 321 68 182 183 245 279 273 269 326 131 105 130 106 160 161 118 188 158 165 209 210 223 266 222 215 195 176 149 137 175 173 157 137 145 140 133
217 240 248 252 259 268 275 285 289 288 289 292 289 277 268 254 250 270 244 167 150 233 246 270 271 290 359 152 132 109 137 155 61 114 143 172 140 226 242 235 231 222 179 192 198 203 223 143 138 146 145 144 143 142
202 213 237 239 253 274 295 301 292 294 297 292 289 274 152 198 220 286 234 152 182 286 284 249 277 345 355 75 92 116 89 154 64 200 203 160 118 215 225 211 211 198 193 200 191 188 175 162 157 155 157 163 152 151
201 218 244 233 257 278 291 300 304 297 297 290 202 218 209 193 160 146 188 149 207 219 230 252 219 272 312 17 81 122 25 138 187 175 132 213 237 240 228 218 220 204 193 151 156 173 174 167 169 167 172 169 167 163
211 228 237 249 250 269 287 301 301 308 116 202 217 239 5 301 172 207 192 205 175 224 201 237 219 246 156 216 144 327 145 128 210 150 226 213 244 233 228 217 213 205 184 190 187 189 179 176 176 169 169 171 168 168
217 232 237 255 256 270 279 291 313 272 222 346 313 304 272 201 192 235 200 179 216 236 181 217 196 205 172 216 135 153 151 172 227 122 223 256 238 237 236 233 214 199 192 195 192 185 182 176 175 173 170 170 167 161
221 235 239 256 267 275 274 290 292 289 306 218 231 238 207 139 30 212 195 202 222 200 183 203 187 201 157 170 99 209 190 179 156 217 234 237 258 259 233 233 208 200 196 194 178 181 182 173 174 173 172 174 153 156
219 246 253 257 259 269 263 272 273 294 228 232 208 249 220 193 232 218 244 279 49 201 351 225 199 212 130 187 153 214 145 143 118 289 255 257 244 252 257 200 176 188 186 187 184 168 170 172 180 179 178 166 159 163
229 262 273 267 243 242 240 238 251 235 249 241 214 233 212 234 246 261 278 267 185 211 202 165 152 234 165 211 213 144 194 210 205 208 213 258 308 290 275 213 202 185 182 182 179 171 171 171 170 172 170 172 170 148
263 290 241 230 240 216 206 184 219 228 246 245 237 251 190 255 247 230 237 255 237 184 168 228 195 197 213 218 192 210 221 206 194 219 305 347 308 301 304 250 213 196 183 176 176 170 162 165 170 167 160 168 167 161
224 245 284 260 190 159 152 157 196 215 239 233 242 248 250 287 248 225 212 244 141 205 222 218 229 233 142 223 217 204 219 161 6 321 306 310 295 308 322 260 196 179 176 169 162 161 160 156 145 149 161 173 173 173
236 316 322 151 138 134 148 221 230 224 241 231 237 227 205 231 242 234 216 194 188 218 199 213 11 244 242 232 218 223 212 233 285 331 340 285 298 317 313 263 195 171 165 158 156 144 148 152 160 174 165 162 159 159
229 337 343 163 164 153 162 187 218 255 240 250 250 241 244 259 238 251 246 206 208 210 239 190 224 218 237 249 271 272 275 272 292 341 318 315 291 309 290 225 178 161 159 156 153 159 164 171 170 162 159 166 175 169
256 275 283 183 223 201 202 188 192 259 259 243 237 222 220 225 223 224 227 208 200 204 218 218 214 223 220 236 247 280 272 255 253 326 326 317 319 281 233 199 172 154 147 143 145 142 150 158 161 162 169 177 175 180
192 196 138 151 194 240 273 234 215 229 250 244 228 203 239 204 228 208 215 171 186 219 229 224 230 237 220 237 206 191 273 246 252 152 286 294 327 323 206 179 149 150 148 160 162 165 182 196 180 172 174 185 187 178
164 135 108 158 222 211 246 201 260 292 239 252 246 216 222 223 202 198 150 195 226 223 222 226 232 235 241 247 238 212 240 223 204 153 235 238 278 135 160 140 147 152 159 174 177 182 190 172 158 172 179 171 166 162
176 156 130 158 199 213 262 182 242 218 247 242 217 231 216 205 147 155 228 225 242 228 225 227 240 199 224 254 250 257 246 194 189 211 223 228 231 247 177 152 166 155 156 164 175 194 173 147 168 171 164 166 166 160
255 200 193 181 196 251 225 225 219 249 243 242 234 257 196 139 151 232 251 236 238 281 247 248 208 227 231 245 252 232 214 187 215 217 193 209 232 234 206 232 227 246 278 147 144 144 139 137 143 153 156 162 168 164
119 225 187 249 200 229 230 239 229 245 240 212 248 261 145 175 196 230 252 357 329 345 346 320 237 225 232 237 225 237 215 200 199 199 195 219 221 141 163 159 164 182 183 150 145 140 144 147 140 146 155 157 156 157
219 190 190 218 175 222 221 259 261 290 272 257 237 288 252 229 238 246 58 332 344 310 339 348 345 322 298 276 329 309 189 184 179 173 194 189 200 213 202 198 206 189 208 161 152 150 146 155 149 150 158 160 146 153
214 220 204 231 270 258 259 249 283 272 274 259 269 310 281 240 269 79 296 295 302 322 313 310 302 310 300 325 215 44 128 160 115 119 106 136 174 202 206 209 215 181 163 167 160 160 156 155 155 158 158 162 174 175
255 272 215 176 213 219 273 262 242 240 248 238 251 247 297 20 1 6 350 331 313 313 333 1 5 346 2 31 100 119 89 99 108 107 106 90 74 96 144 197 161 141 147 156 161 163 151 152 157 163 168 170 169 182
238 228 215 235 219 229 225 232 256 260 295 297 313 309 345 42 16 331 344 316 306 334 23 14 29 49 70 72 79 110 133 146 143 133 124 118 112 81 75 98 138 142 139 142 126 154 168 165 168 168 170 175 179 182
229 192 221 221 218 227 245 202 284 25 50 358 343 325 346 252 212 231 290 24 113 99 359 342 347 14 93 104 110 99 55 353 12 100 148 153 124 127 137 143 144 140 141 147 145 126 114 118 116 133 157 164 170 174
165 183 218 235 258 243 163 106 357 326 87 221 226 212 237 278 37 219 342 7 94 161 303 7 72 95 114 109 95 100 95 65 58 84 98 110 124 129 131 131 132 140 144 142 145 152 151 163 169 168 175 185 186 199
193 206 211 229 242 162 155 202 192 222 227 203 236 211 173 186 322 36 28 3 92 76 338 15 51 69 50 69 58 56 65 93 91 107 110 111 115 124 127 128 132 134 139 135 151 163 177 179 179 191 199 208 213 213
203 199 221 257 251 208 183 188 198 201 198 178 138 183 223 192 80 50 34 34 65 31 4 350 329 49 71 70 74 90 90 101 80 82 111 121 129 132 137 144 153 171 178 187 188 184 188 197 197 208 217 217 216 222